FW3894 Weather Reports


time (UTC)temp
C
wind
direction
speed
KPH
gust
KPH
rain 1hr
cm
rain 24hr
cm
rain mn
cm
humidity
%
barometer
mb
20260506202015 13 198 8.0 19.3 0.00 0.00 0.00 86 1006.3
20260506201534 13 177 6.4 16.1 0.00 0.00 0.00 84 1006.4
20260506201013 14 183 8.0 16.1 0.00 0.00 0.00 83 1006.5
20260506200511 15 153 6.4 16.1 0.00 0.00 0.00 81 1006.5
20260506200039 16 186 8.0 22.5 0.00 0.00 0.00 77 1006.5
20260506195515 18 180 11.3 22.5 0.00 0.00 0.00 75 1006.5
20260506195015 18 261 11.3 24.1 0.00 0.00 0.00 80 1006.5
20260506194534 18 311 12.9 24.1 0.00 0.00 0.00 81 1006.5
20260506194012 18 291 12.9 24.1 0.00 0.00 0.00 81 1006.6
20260506193510 18 273 9.7 24.1 0.00 0.00 0.00 82 1006.7
20260506193030 18 236 9.7 24.1 0.00 0.00 0.00 83 1006.7
20260506192509 17 282 6.4 20.9 0.00 0.00 0.00 86 1006.9
20260506192010 17 205 6.4 19.3 0.00 0.00 0.00 87 1006.9
20260506191530 16 246 4.8 24.1 0.00 0.00 0.00 88 1006.9
20260506191010 16 221 9.7 24.1 0.00 0.00 0.00 90 1006.8
20260506190510 16 225 9.7 24.1 0.00 0.00 0.00 92 1007.0
20260506190030 13 216 8.0 17.7 0.00 0.00 0.00 91 1007.1
20260506185511 13 178 8.0 16.1 0.00 0.00 0.00 89 1007.0
20260506185011 13 360 8.0 27.4 0.00 0.00 0.00 89 1007.0
20260506184529 13 236 8.0 27.4 0.00 0.00 0.00 90 1007.0
20260506184013 12 182 14.5 24.1 0.00 0.00 0.00 90 1007.1
20260506183511 12 209 12.9 25.7 0.00 0.00 0.00 89 1007.1
20260506183034 12 192 14.5 32.2 0.00 0.00 0.00 90 1007.2
20260506182509 12 173 14.5 32.2 0.00 0.00 0.00 89 1007.3
20260506182016 13 192 14.5 27.4 0.00 0.00 0.00 89 1007.3
20260506181531 12 168 16.1 27.4 0.00 0.00 0.00 90 1007.3
20260506181009 12 177 14.5 27.4 0.00 0.00 0.00 91 1007.2
20260506180510 12 203 12.9 27.4 0.00 0.00 0.00 91 1007.3
20260506180034 12 179 11.3 27.4 0.00 0.00 0.00 90 1007.5
20260506175511 12 205 12.9 27.4 0.00 0.00 0.00 90 1007.6
20260506175009 12 205 12.9 25.7 0.00 0.00 0.00 90 1007.6
20260506174529 12 207 14.5 27.4 0.00 0.00 0.00 91 1007.7
20260506174011 12 221 14.5 27.4 0.00 0.00 0.00 90 1007.8
20260506173512 12 165 12.9 25.7 0.00 0.00 0.00 91 1007.8
20260506173038 12 219 14.5 27.4 0.00 0.00 0.00 90 1007.8
20260506172511 12 192 12.9 27.4 0.00 0.00 0.00 91 1007.7
20260506172012 12 193 14.5 25.7 0.00 0.00 0.00 90 1007.9
20260506171531 12 176 12.9 25.7 0.00 0.00 0.00 89 1007.8
20260506171011 12 189 14.5 25.7 0.00 0.00 0.00 88 1008.1
20260506170509 13 148 12.9 27.4 0.00 0.00 0.00 88 1008.0
20260506170031 13 159 11.3 27.4 0.00 0.00 0.00 88 1008.1
20260506165510 13 199 12.9 25.7 0.00 0.00 0.00 87 1008.3
20260506165011 13 172 11.3 20.9 0.00 0.00 0.00 87 1008.6
20260506164530 13 211 11.3 22.5 0.00 0.00 0.00 87 1008.6
20260506164010 13 360 9.7 22.5 0.00 0.00 0.00 87 1008.6
20260506163515 13 192 11.3 20.9 0.00 0.00 0.00 88 1008.9
20260506163030 13 162 11.3 24.1 0.00 0.00 0.00 87 1008.9
20260506162510 13 155 11.3 30.6 0.00 0.00 0.00 87 1009.0
20260506162010 13 130 11.3 30.6 0.00 0.00 0.00 88 1009.0
20260506161533 13 194 11.3 24.1 0.00 0.00 0.00 88 1009.2
20260506161008 13 157 14.5 30.6 0.00 0.00 0.00 88 1009.0
20260506160513 13 189 11.3 30.6 0.00 0.00 0.00 88 1009.1
20260506160032 13 200 12.9 27.4 0.00 0.00 0.00 87 1008.9
20260506155514 13 217 16.1 27.4 0.00 0.00 0.00 87 1008.9
20260506155015 13 172 16.1 30.6 0.00 0.00 0.00 87 1009.1
20260506154538 13 184 16.1 32.2 0.00 0.00 0.00 86 1009.2
20260506154010 13 169 14.5 32.2 0.00 0.00 0.00 86 1009.1
20260506153512 13 196 14.5 27.4 0.00 0.00 0.00 87 1008.9
20260506153030 13 159 16.1 29.0 0.00 0.00 0.00 87 1008.9
20260506152508 13 174 16.1 29.0 0.00 0.00 0.00 88 1009.0
20260506152012 13 217 16.1 30.6 0.00 0.00 0.00 88 1009.0
20260506151529 13 178 16.1 30.6 0.00 0.00 0.00 87 1009.1
20260506151010 13 187 14.5 30.6 0.00 0.00 0.00 86 1009.2
20260506150509 13 202 16.1 30.6 0.00 0.00 0.00 86 1009.2
20260506150033 13 148 14.5 27.4 0.00 0.00 0.00 86 1009.2
20260506145510 14 231 17.7 27.4 0.00 0.00 0.00 85 1009.1
20260506145012 14 208 16.1 29.0 0.00 0.00 0.00 85 1009.1
20260506144533 14 192 17.7 29.0 0.00 0.00 0.00 85 1009.2
20260506144012 14 189 16.1 27.4 0.00 0.00 0.00 85 1009.1
20260506143516 14 182 14.5 30.6 0.00 0.00 0.00 86 1009.1
20260506143035 14 169 17.7 30.6 0.00 0.00 0.00 87 1009.2
20260506142507 13 167 16.1 37.0 0.00 0.00 0.00 88 1009.1
20260506142011 13 175 16.1 37.0 0.00 0.00 0.00 86 1009.2
20260506141529 13 175 17.7 33.8 0.00 0.00 0.00 86 1009.2
20260506141011 13 175 14.5 30.6 0.00 0.00 0.00 86 1009.0
20260506140512 13 194 14.5 30.6 0.00 0.00 0.00 84 1009.1
20260506140029 14 210 14.5 27.4 0.00 0.00 0.00 84 1009.1
20260506135509 14 242 12.9 27.4 0.00 0.00 0.00 84 1009.2
20260506135009 14 190 12.9 27.4 0.00 0.00 0.00 83 1009.3
20260506134530 15 185 14.5 25.7 0.00 0.00 0.00 83 1009.3
20260506134010 15 200 12.9 22.5 0.00 0.00 0.00 82 1009.5
20260506133515 15 221 12.9 20.9 0.00 0.00 0.00 79 1009.4
20260506133028 16 184 8.0 17.7 0.00 0.00 0.00 77 1009.4
20260506132512 16 214 6.4 19.3 0.00 0.00 0.00 83 1009.5
20260506132016 16 205 9.7 19.3 0.00 0.00 0.00 81 1009.8
20260506131535 16 219 8.0 17.7 0.00 0.00 0.00 78 1009.6
20260506131009 17 171 6.4 16.1 0.00 0.00 0.00 78 1009.6
20260506130516 17 186 6.4 16.1 0.00 0.00 0.00 79 1009.6
20260506130032 17 182 6.4 16.1 0.00 0.00 0.00 80 1009.5
20260506125510 17 211 6.4 16.1 0.00 0.00 0.00 83 1009.6
20260506125013 16 188 6.4 16.1 0.00 0.00 0.00 84 1009.5
20260506124537 16 172 6.4 16.1 0.00 0.00 0.00 83 1009.4
20260506124007 16 171 6.4 16.1 0.00 0.00 0.00 82 1009.4
20260506123511 16 256 6.4 22.5 0.00 0.00 0.00 84 1009.5
20260506123039 16 182 8.0 22.5 0.00 0.00 0.00 83 1009.5
20260506122510 16 192 8.0 22.5 0.00 0.00 0.00 83 1009.4
20260506122009 16 168 6.4 19.3 0.00 0.00 0.00 80 1009.7
20260506121530 16 229 6.4 19.3 0.00 0.00 0.00 82 1009.6
20260506121009 17 202 6.4 19.3 0.00 0.00 0.00 82 1009.5
20260506120513 17 180 6.4 20.9 0.00 0.00 0.00 82 1009.6
20260506120037 17 145 8.0 20.9 0.00 0.00 0.00 82 1009.5
20260506115510 17 239 8.0 19.3 0.00 0.00 0.00 82 1009.6
20260506115014 16 225 6.4 20.9 0.00 0.00 0.00 83 1009.7
20260506114528 16 192 8.0 20.9 0.00 0.00 0.00 84 1009.8
20260506114009 16 210 8.0 19.3 0.00 0.00 0.00 84 1009.8
20260506113513 16 215 6.4 19.3 0.00 0.00 0.00 85 1009.8
20260506113032 16 186 6.4 20.9 0.00 0.00 0.00 85 1009.8
20260506112512 16 325 8.0 20.9 0.00 0.00 0.00 85 1009.8
20260506112015 16 234 8.0 19.3 0.00 0.00 0.00 86 1009.7
20260506111531 16 294 8.0 19.3 0.00 0.00 0.00 86 1009.7
20260506111010 16 217 8.0 19.3 0.00 0.00 0.00 86 1009.7
20260506110510 15 213 4.8 19.3 0.00 0.00 0.00 87 1009.7
20260506110030 15 180 8.0 17.7 0.00 0.00 0.00 88 1009.7
20260506105510 15 194 9.7 19.3 0.00 0.00 0.00 88 1009.7
20260506105011 15 223 8.0 19.3 0.00 0.00 0.00 89 1009.6
20260506104531 15 180 8.0 19.3 0.00 0.00 0.00 89 1009.7
20260506104009 15 192 8.0 19.3 0.00 0.00 0.00 89 1009.7
20260506103509 15 186 9.7 17.7 0.00 0.00 0.00 89 1009.7
20260506103032 15 252 6.4 22.5 0.00 0.00 0.00 89 1009.7
20260506102511 15 209 9.7 22.5 0.00 0.00 0.00 89 1009.7
20260506102011 15 228 9.7 19.3 0.00 0.00 0.00 89 1009.4
20260506101530 15 176 8.0 19.3 0.00 0.00 0.00 89 1009.5
20260506101010 15 205 6.4 17.7 0.00 0.00 0.00 88 1009.5
20260506100507 15 261 9.7 17.7 0.00 0.00 0.00 87 1009.5
20260506100034 15 189 9.7 17.7 0.00 0.00 0.00 87 1009.5
20260506095513 15 228 8.0 19.3 0.00 0.00 0.00 87 1009.4
20260506095011 15 300 6.4 19.3 0.00 0.00 0.00 87 1009.5
20260506094536 15 173 8.0 20.9 0.00 0.00 0.00 87 1009.4
20260506094010 15 257 8.0 20.9 0.00 0.00 0.00 87 1009.5
20260506093513 15 269 8.0 20.9 0.00 0.00 0.00 87 1009.5
20260506093042 15 258 9.7 20.9 0.00 0.00 0.00 87 1009.5
20260506092510 15 229 8.0 19.3 0.00 0.00 0.00 87 1009.5
20260506092015 15 186 8.0 22.5 0.00 0.00 0.00 88 1009.6
20260506091529 15 225 9.7 22.5 0.00 0.00 0.00 88 1009.6
20260506091010 15 198 8.0 22.5 0.00 0.00 0.00 88 1009.7
20260506090509 15 246 9.7 22.5 0.00 0.00 0.00 88 1009.5
20260506090028 15 205 8.0 20.9 0.00 0.00 0.00 88 1009.8
20260506085508 15 235 8.0 20.9 0.00 0.00 0.00 87 1009.8
20260506085011 15 240 8.0 20.9 0.00 0.00 0.00 87 1009.8
20260506084528 15 181 8.0 20.9 0.00 0.00 0.00 87 1009.8
20260506084012 15 181 8.0 22.5 0.00 0.00 0.00 88 1009.7
20260506083516 15 238 8.0 22.5 0.00 0.00 0.00 88 1010.0
20260506083030 15 244 9.7 17.7 0.00 0.00 0.00 88 1009.9
20260506082515 14 180 8.0 17.7 0.00 0.00 0.00 88 1009.9
20260506082014 14 194 8.0 17.7 0.00 0.00 0.00 86 1009.8
20260506081530 15 215 8.0 17.7 0.00 0.00 0.00 84 1009.9
20260506081011 15 178 8.0 22.5 0.00 0.00 0.00 84 1009.9
20260506080508 16 170 11.3 22.5 0.00 0.00 0.00 85 1009.9
20260506073514 16 238 8.0 17.7 0.00 0.00 0.00 85 1009.9
20260506073030 16 257 9.7 19.3 0.00 0.00 0.00 85 1010.1
20260506072513 16 190 8.0 19.3 0.00 0.00 0.00 85 1010.0
20260506072013 16 204 8.0 19.3 0.00 0.00 0.00 85 1010.1
20260506071528 16 146 6.4 19.3 0.00 0.00 0.00 84 1010.1
20260506071010 16 221 8.0 17.7 0.00 0.00 0.00 84 1009.9
20260506070510 16 205 8.0 22.5 0.00 0.00 0.00 84 1010.0
20260506062511 16 240 9.7 24.1 0.00 0.00 0.00 83 1010.0
20260506062013 16 225 9.7 24.1 0.00 0.00 0.00 83 1010.0
20260506061534 16 220 6.4 20.9 0.00 0.00 0.00 83 1009.9
20260506061014 16 155 8.0 24.1 0.00 0.00 0.00 83 1010.2
20260506060514 16 205 9.7 24.1 0.00 0.00 0.00 83 1010.0
20260506051008 16 169 11.3 22.5 0.00 0.00 0.00 84 1010.4
20260506050509 16 233 8.0 20.9 0.00 0.00 0.00 84 1010.6
20260506045011 16 257 9.7 25.7 0.00 0.00 0.00 82 1010.7
20260506044542 16 231 9.7 27.4 0.00 0.00 0.00 82 1010.8
20260506044011 16 187 9.7 27.4 0.00 0.00 0.00 82 1010.8
20260506043515 16 222 9.7 24.1 0.00 0.00 0.00 82 1010.8
20260506043033 16 207 9.7 24.1 0.00 0.00 0.00 82 1010.7
20260506042512 16 244 9.7 20.9 0.00 0.00 0.00 81 1010.7
20260506042012 16 174 9.7 22.5 0.00 0.00 0.00 81 1010.7
20260506041530 16 236 9.7 22.5 0.00 0.00 0.00 81 1010.6
20260506041009 16 203 9.7 22.5 0.00 0.00 0.00 81 1010.7
20260506040511 16 160 11.3 22.5 0.00 0.00 0.00 81 1010.6
20260506040029 16 184 9.7 22.5 0.00 0.00 0.00 80 1010.4
20260506035510 16 191 11.3 22.5 0.00 0.00 0.00 80 1010.7
20260506035009 16 236 9.7 25.7 0.00 0.00 0.00 80 1010.7
20260506034530 16 193 9.7 25.7 0.00 0.00 0.00 79 1010.7
20260506034012 17 188 8.0 22.5 0.00 0.00 0.00 79 1010.7
20260506033511 17 146 9.7 24.1 0.00 0.00 0.00 79 1010.8
20260506033032 17 232 11.3 24.1 0.00 0.00 0.00 79 1010.6
20260506032510 17 169 11.3 24.1 0.00 0.00 0.00 79 1010.6
20260506032014 17 266 9.7 20.9 0.00 0.00 0.00 79 1010.6
20260506031539 17 173 11.3 27.4 0.00 0.00 0.00 79 1010.7
20260506031013 17 161 9.7 27.4 0.00 0.00 0.00 79 1010.8
20260506030509 17 206 11.3 27.4 0.00 0.00 0.00 78 1010.8
20260506030029 17 204 11.3 20.9 0.00 0.00 0.00 78 1010.8
20260506025511 17 214 9.7 22.5 0.00 0.00 0.00 78 1010.7
20260506025013 17 227 9.7 22.5 0.00 0.00 0.00 78 1010.7
20260506024535 17 204 11.3 22.5 0.00 0.00 0.00 78 1010.8
20260506024010 17 199 9.7 20.9 0.00 0.00 0.00 78 1010.9
20260506023512 17 225 9.7 24.1 0.00 0.00 0.00 78 1010.8
20260506023030 17 229 11.3 24.1 0.00 0.00 0.00 78 1011.0
20260506022512 17 223 8.0 25.7 0.00 0.00 0.00 78 1010.9
20260506022014 17 188 11.3 27.4 0.00 0.00 0.00 78 1010.9
20260506021528 17 205 11.3 27.4 0.00 0.00 0.00 78 1010.8
20260506021009 17 231 9.7 22.5 0.00 0.00 0.00 77 1011.0
20260506020509 17 215 11.3 24.1 0.00 0.00 0.00 77 1011.0
20260506020030 17 246 11.3 29.0 0.00 0.00 0.00 77 1010.9
20260506015511 17 202 11.3 29.0 0.00 0.00 0.00 77 1010.8
20260506015015 17 314 11.3 25.7 0.00 0.00 0.00 77 1011.0
20260506014530 17 253 11.3 24.1 0.00 0.00 0.00 76 1010.9
20260506014009 17 248 11.3 29.0 0.00 0.00 0.00 76 1010.9
20260506013510 18 221 11.3 29.0 0.00 0.00 0.00 76 1010.8
20260506013035 18 171 12.9 29.0 0.00 0.00 0.00 75 1010.7
20260506012510 18 217 12.9 29.0 0.00 0.00 0.00 75 1010.7
20260506012013 18 201 12.9 27.4 0.00 0.00 0.00 74 1010.5
20260506011532 18 248 11.3 25.7 0.00 0.00 0.00 74 1010.6
20260506011011 18 243 11.3 30.6 0.00 0.00 0.00 73 1010.3
20260506010511 18 217 12.9 32.2 0.00 0.00 0.00 73 1010.3
20260506010034 18 241 12.9 32.2 0.00 0.00 0.00 72 1010.3
20260506005509 18 207 12.9 29.0 0.00 0.00 0.00 71 1010.3
20260506005012 18 185 12.9 29.0 0.00 0.00 0.00 71 1010.3
20260506004541 18 211 11.3 27.4 0.00 0.00 0.00 71 1010.0
20260506004010 18 154 11.3 27.4 0.00 0.00 0.00 71 1010.1
20260506003513 18 207 12.9 27.4 0.00 0.00 0.00 70 1010.0
20260506003032 18 173 12.9 24.1 0.00 0.00 0.00 70 1010.1
20260506002510 18 190 9.7 25.7 0.00 0.00 0.00 70 1010.1
20260506002018 18 215 11.3 25.7 0.00 0.00 0.00 70 1009.9
20260506001530 18 183 11.3 24.1 0.00 0.00 0.00 70 1010.0
20260506001012 18 198 12.9 25.7 0.00 0.00 0.00 70 1009.9
20260506000514 18 238 11.3 32.2 0.00 0.00 0.00 70 1010.0
20260506000029 18 171 11.3 32.2 0.00 0.00 0.00 69 1009.9
20260505235509 18 223 12.9 27.4 0.00 0.00 0.00 69 1009.8
20260505235012 19 214 11.3 29.0 0.00 0.00 0.00 69 1009.8
20260505234602 19 262 9.7 29.0 0.00 0.00 0.00 69 1009.7
20260505234011 19 224 9.7 24.1 0.00 0.00 0.00 69 1009.7
20260505233509 19 257 12.9 27.4 0.00 0.00 0.00 68 1009.6
20260505233032 19 239 12.9 29.0 0.00 0.00 0.00 67 1009.5
20260505232509 20 273 12.9 29.0 0.00 0.00 0.00 66 1009.3
20260505232012 20 215 14.5 30.6 0.00 0.00 0.00 65 1009.5
20260505231535 20 210 14.5 32.2 0.00 0.00 0.00 65 1009.2
20260505231009 20 221 16.1 33.8 0.00 0.00 0.00 65 1009.3
20260505230513 20 178 14.5 33.8 0.00 0.00 0.00 65 1009.2
20260505230032 20 215 12.9 30.6 0.00 0.00 0.00 64 1009.2
20260505225512 20 258 12.9 30.6 0.00 0.00 0.00 64 1009.0
20260505225014 20 202 12.9 27.4 0.00 0.00 0.00 64 1009.0
20260505224534 20 163 12.9 30.6 0.00 0.00 0.00 64 1008.9
20260505224014 20 196 14.5 32.2 0.00 0.00 0.00 64 1008.8
20260505223518 20 180 12.9 32.2 0.00 0.00 0.00 64 1008.9
20260505223031 20 153 12.9 32.2 0.00 0.00 0.00 64 1008.8
20260505222511 20 204 14.5 30.6 0.00 0.00 0.00 64 1008.9
20260505222015 20 147 14.5 32.2 0.00 0.00 0.00 65 1008.7
20260505221532 20 239 14.5 32.2 0.00 0.00 0.00 66 1008.8
20260505221010 20 175 16.1 32.2 0.00 0.00 0.00 66 1008.7
20260505220511 20 267 14.5 33.8 0.00 0.00 0.00 67 1008.7
20260505220029 19 223 12.9 33.8 0.00 0.00 0.00 70 1008.8
20260505215508 17 257 12.9 27.4 0.00 0.00 0.00 73 1008.7
20260505215010 17 203 11.3 29.0 0.00 0.00 0.00 76 1008.6
20260505214538 16 360 14.5 30.6 0.00 0.00 0.00 77 1008.6
20260505214011 16 175 17.7 30.6 0.00 0.00 0.00 77 1008.5
20260505213512 16 191 17.7 33.8 0.00 0.00 0.00 76 1008.4
20260505213030 16 360 19.3 33.8 0.00 0.00 0.00 77 1008.5
20260505212509 16 165 20.9 33.8 0.00 0.00 0.00 77 1008.6
20260505212016 16 165 19.3 38.6 0.00 0.00 0.00 76 1008.4
20260505211530 16 171 20.9 38.6 0.00 0.00 0.00 76 1008.3
20260505211012 16 159 19.3 38.6 0.00 0.00 0.00 75 1008.2
20260505210517 16 190 17.7 37.0 0.00 0.00 0.00 75 1008.3
20260505210031 16 127 17.7 35.4 0.00 0.00 0.00 75 1008.2
20260505205512 16 187 17.7 33.8 0.00 0.00 0.00 75 1008.2
20260505205016 16 177 19.3 35.4 0.00 0.00 0.00 75 1008.2
20260505204530 16 193 16.1 38.6 0.00 0.00 0.00 74 1008.3
20260505204009 16 213 20.9 38.6 0.00 0.00 0.00 74 1008.2
20260505203510 16 192 17.7 35.4 0.00 0.00 0.00 74 1008.2
20260505203029 17 182 17.7 32.2 0.00 0.00 0.00 74 1008.2
20260505202510 17 207 16.1 33.8 0.00 0.00 0.00 73 1008.4